Location: Bílinka
(49.3579°N, 14.3767°E)
Time: 22:08:02
(UTC+00:00)

Cosmos 2278 Rocket - Pass Details

Date: 28 January 2023
Orbit: 841 x 845 km, 71.0° (Epoch: 28 March)

Event Time Altitude Azimuth Distance (km) Brightness Sun altitude
Rises 17:54:45 0° 333° (NNW) 3,417 5.7 -20.0°
Reaches altitude 10° 17:58:46 10° 1° (N) 2,479 4.6 -20.6°
Enters shadow 18:00:53 13° 23° (NNE) 2,275 4.2 -21.0°
